{"data":{"norad_id":54862,"intl_designator":"2022-177AU","name":"STARLINK-5403","alt_names":[],"object_type":"PAYLOAD","status":"ACTIVE","operator":null,"country":"US","launch_date":"2022-12-28","launch_site_code":"AFETR","launch_vehicle":null,"mission":null,"orbit_class":"UNKNOWN","rcs_meters":null,"size_class":null,"mass_kg":null,"dimensions":null,"purposes":["comms"],"wikipedia_slug":null,"has_3d_model":false,"image_url":null,"decayed_at":null,"tle_current":{"epoch":"2026-09-20T22:47:50.110656Z","epoch_age_seconds":54487,"freshness":"FRESH","line1":"1 54862U 22177AU  26263.94988554 -.00000244  00000+0  64909-6 0  9999","line2":"2 54862  43.0017  98.8303 0001507 259.8775 100.1907 15.27571810206956","mean_motion":15.2757181,"eccentricity":0.0001507,"inclination_deg":43.0017,"raan_deg":98.8303,"arg_perigee_deg":259.8775,"mean_anomaly_deg":100.1907,"bstar":6.4909e-7,"rev_number":20695,"period_min":94.267254120119,"perigee_km":482.03963551513,"apogee_km":484.10760439599,"semimajor_km":6861.2106199556,"source":"CELESTRAK","updated_at":"2026-09-21T09:00:33.160307Z"}}}